Location: Six Mile Lake
(44.9000°N, 79.7170°W)
Time: 15:44:54
(UTC-04:00)

LO-87 - Pass Details

Date: 08 July 2022
Orbit: 450 x 466 km, 97.4° (Epoch: 17 August)

Event Time Altitude Azimuth Distance (km) Brightness Sun altitude
Exits shadow 00:02:31 21° 77° (ENE) 1,100 ? -20.1°
Maximum altitude 00:02:53 21° 68° (ENE) 1,089 ? -20.1°
Drops below altitude 10° 00:05:35 10° 17° (NNE) 1,631 ? -20.3°
Sets 00:07:58 0° 1° (N) 2,517 ? -20.4°
